Vorticity
1 5 11 21 13 3 14 22 23 7 2 7 6 8 4 3 4 2 4 3 5 4 6 4 4 3 6 4 4 2 1 3 5 4 5 5 5 4 4 4 4 3 4 4 5 5 6 7 7
6 -0 9 13 3 -6 27 14 22 12 7 1 8 1 8 2 3 1 3 -2 1 4 3 4 4 3 5 4 4 4 3 0 2 3 4 4 4 5 5 4 4 4 4 4 5 5 6 8 8
5 7 13 10 9 8 15 17 24 11 6 7 -3 10 2 -1 5 4 7 5 -0 2 5 6 4 5 4 3 3 3 2 4 2 0 2 3 3 4 4 5 5 4 4 4 5 6 7 8 7
7 5 9 -1 16 24 17 19 25 11 10 6 -1 2 9 22 2 1 -1 5 4 0 2 2 3 5 5 4 2 3 4 6 6 4 1 2 3 4 4 5 5 4 5 5 5 5 8 8 6
11 2 9 14 20 19 16 16 25 14 4 6 4 5 5 1 10 5 5 3 3 2 4 5 4 4 5 4 4 3 3 4 4 4 4 2 3 4 5 5 5 4 4 5 5 6 8 8 7
7 11 11 19 21 23 14 22 33 19 3 4 7 6 -4 8 5 4 3 6 3 8 5 7 6 2 4 5 4 4 5 5 6 6 5 4 4 4 5 5 5 5 5 5 6 6 7 7 6
23 11 16 18 18 20 14 22 23 20 6 2 11 9 -2 12 -24 -1 0 5 -1 4 4 7 6 5 4 4 5 7 6 6 6 6 6 6 5 5 5 5 6 6 5 6 6 6 7 7 6
22 13 21 17 24 18 19 32 17 16 17 1 7 14 11 6 -5 27 1 5 7 1 3 0 2 3 3 4 4 4 6 5 5 5 5 4 5 6 6 6 5 5 4 5 5 5 7 7 6
24 15 21 25 16 31 20 13 5 18 9 5 9 4 8 7 9 -8 15 -9 4 -2 2 -0 3 3 3 3 4 6 7 7 5 5 5 4 5 6 6 5 5 4 4 4 5 5 7 6 6
18 16 22 25 24 26 20 10 34 -14 13 10 12 6 4 -2 12 1 1 3 9 5 1 9 8 3 3 4 4 4 4 5 7 5 5 5 4 5 5 5 5 5 4 4 4 4 6 6 6
13 16 25 16 19 16 23 4 21 -3 12 5 19 10 4 7 8 2 -1 25 3 13 7 -1 1 7 4 4 5 6 6 5 5 7 4 3 5 4 5 5 4 5 4 4 5 4 4 5 5
8 8 11 21 15 17 21 9 15 16 28 20 -2 12 2 7 17 18 -28 -2 39 14 4 7 7 7 4 3 4 3 5 5 5 5 6 5 3 4 5 5 4 4 4 4 4 4 4 4 3
8 7 8 11 13 20 21 9 3 44 -1 19 12 14 5 5 3 39 9 -9 14 -6 15 6 4 6 5 6 3 4 4 6 4 4 4 4 7 5 5 4 4 4 4 3 4 4 4 4 4
3 6 6 14 12 18 22 13 1 35 8 3 19 16 6 -5 -7 37 14 -41 -2 46 -2 -0 11 5 2 5 8 5 6 5 5 3 3 4 3 3 4 6 6 6 6 6 6 5 5 6 6
22 14 6 6 23 22 18 18 13 37 41 -36 30 8 9 -4 18 -17 23 16 16 -38 43 -11 -1 5 1 8 9 7 7 6 5 6 5 4 4 4 3 3 4 4 5 6 6 6 6 5 4
24 25 18 11 15 30 11 21 7 38 -17 -18 16 6 17 -2 10 -19 29 18 31 13 9 -11 14 19 11 -7 3 9 6 4 4 3 3 3 6 6 5 4 4 4 6 6 6 6 5 6 6
21 21 15 7 21 28 13 8 12 36 19 24 12 -14 21 -3 7 15 -15 14 27 25 24 -31 73 -14 -12 13 -1 -2 2 4 3 4 4 3 3 4 5 6 6 7 7 7 7 8 8 7 7
24 19 17 38 15 17 24 6 12 41 -4 61 5 26 10 5 5 -33 33 9 -21 15 5 4 34 41 26 -3 -13 0 1 4 3 3 4 5 5 5 6 6 8 8 9 8 7 6 6 7 6
28 20 14 20 2 17 15 12 11 36 9 -22 57 17 -4 12 3 5 -16 6 -16 -10 6 -0 -14 -7 -4 -1 28 14 2 -1 -1 4 7 8 8 8 6 5 4 3 3 5 4 4 3 3 4
21 3 24 10 19 32 15 28 16 35 -2 -13 26 -6 4 7 7 6 4 -12 9 16 3 7 0 -7 28 8 16 5 -5 5 3 1 3 5 4 3 5 3 5 4 3 2 4 5 5 6 5
4 17 32 20 10 29 21 -7 44 34 -20 8 50 13 13 19 1 2 -2 -1 23 27 -12 24 -7 -2 -9 -38 -23 -14 -19 -4 4 4 6 2 5 9 8 7 10 8 13 13 6 0 14 4 4
11 17 19 -1 9 -1 20 16 -4 35 -23 -57 56 18 13 -3 -2 16 7 2 -28 -7 36 -13 9 36 6 18 26 18 24 13 18 -5 10 -1 7 5 -1 2 2 5 -5 -9 -0 4 -6 1 22
17 20 15 2 3 45 21 4 40 16 11 -11 73 10 -2 18 9 4 11 4 13 15 -26 -26 -1 -21 46 -3 11 3 3 15 -16 -17 -7 4 10 12 -6 7 -2 7 11 10 37 35 -16 25 13
-4 11 17 3 -33 31 33 35 18 44 -16 -8 85 15 16 12 -9 12 0 -1 4 -16 6 -30 -23 -8 3 8 32 17 -1 5 26 18 17 3 20 6 34 14 5 -1 4 16 -3 -35 3 4 4
28 14 17 27 2 9 26 27 11 23 9 -1 37 55 10 -5 16 13 7 24 23 5 14 24 -15 1 18 -12 54 20 4 13 -21 -4 38 3 21 2 -3 26 3 3 1 9 5 2 3 4 4
7 8 15 -8 24 9 2 -2 31 39 -23 45 25 13 21 31 -19 -16 -15 10 -3 -3 -3 -1 -7 -12 -11 21 22 3 67 33 36 32 15 33 8 -0 -7 -10 2 7 1 0 -0 3 2 3 3
8 2 39 25 3 3 17 -21 -4 32 55 -1 39 14 7 -10 18 5 10 12 -6 0 -19 -8 4 7 3 -55 -56 38 -2 -16 5 -41 -2 -3 -19 9 10 6 4 3 3 3 4 3 3 6 5
-4 12 6 13 24 22 16 10 -13 5 22 14 63 -28 18 10 13 10 6 8 9 -5 -9 3 7 10 7 15 21 -17 -30 -9 -3 -16 -9 1 10 7 2 6 4 1 1 4 0 0 1 12 9
1 -2 3 12 27 24 -11 15 19 4 13 4 18 34 34 21 -12 -1 11 8 11 14 10 3 -3 4 4 10 14 14 16 11 6 7 -4 -1 6 5 6 7 5 -0 4 2 -0 -1 5 10 11
16 7 5 14 12 18 13 13 7 8 23 6 -5 16 29 23 38 32 10 -13 -17 -9 2 15 18 16 11 18 9 12 5 1 6 -5 4 6 7 5 5 7 1 4 4 2 -0 -3 9 15 20
Height
5777 5775 5774 5773 5776 5770 5768 5767 5776 5792 5803 5815 5821 5826 5832 5836 5842 5850 5855 5859 5862 5867 5871 5873 5877 5880 5883 5886 5888 5890 5893 5894 5895 5895 5896 5896 5897 5899 5900 5902 5902 5903 5903 5902 5902 5901 5900 5900 5900
5765 5762 5762 5760 5757 5753 5754 5759 5765 5784 5795 5804 5809 5814 5819 5826 5834 5840 5847 5853 5858 5862 5867 5869 5873 5877 5879 5882 5885 5888 5890 5892 5893 5893 5895 5895 5896 5897 5899 5900 5901 5902 5902 5902 5901 5901 5900 5899 5900
5751 5749 5748 5744 5739 5733 5739 5747 5759 5780 5787 5791 5796 5802 5811 5819 5827 5836 5840 5846 5851 5857 5862 5866 5869 5873 5876 5878 5881 5885 5887 5889 5890 5892 5893 5894 5894 5895 5897 5898 5900 5900 5901 5901 5901 5900 5900 5899 5899
5734 5732 5728 5725 5722 5727 5729 5734 5753 5770 5778 5779 5787 5786 5801 5811 5819 5828 5834 5840 5845 5851 5856 5861 5865 5869 5872 5875 5878 5881 5884 5886 5888 5889 5891 5892 5893 5893 5896 5897 5898 5899 5899 5900 5900 5900 5900 5899 5899
5714 5710 5708 5703 5706 5712 5714 5723 5740 5752 5762 5769 5775 5783 5792 5800 5808 5819 5826 5833 5839 5846 5851 5856 5861 5865 5869 5872 5875 5878 5881 5883 5885 5887 5889 5889 5891 5893 5894 5895 5896 5897 5898 5898 5899 5899 5899 5899 5899
5695 5690 5686 5684 5689 5699 5700 5715 5727 5738 5747 5755 5759 5772 5778 5785 5794 5807 5818 5828 5833 5840 5846 5851 5857 5861 5865 5868 5872 5875 5878 5880 5882 5884 5886 5887 5889 5891 5893 5894 5894 5895 5896 5897 5897 5898 5898 5898 5898
5680 5671 5667 5668 5669 5682 5687 5700 5711 5728 5736 5745 5753 5760 5770 5777 5791 5803 5812 5822 5826 5833 5839 5845 5851 5857 5861 5865 5868 5871 5874 5877 5879 5881 5884 5885 5887 5888 5891 5893 5893 5893 5894 5896 5896 5896 5896 5897 5897
5658 5652 5647 5646 5651 5667 5679 5687 5699 5707 5725 5740 5742 5748 5761 5775 5784 5793 5804 5814 5821 5827 5833 5839 5845 5851 5857 5861 5864 5867 5871 5872 5875 5878 5881 5883 5884 5886 5888 5890 5892 5891 5891 5893 5894 5894 5895 5895 5896
5640 5633 5630 5637 5645 5659 5667 5671 5687 5698 5709 5718 5730 5740 5754 5762 5768 5780 5795 5802 5811 5819 5827 5832 5839 5845 5850 5856 5860 5864 5866 5868 5872 5875 5878 5879 5881 5884 5886 5888 5890 5890 5889 5891 5892 5893 5893 5893 5894
5621 5617 5623 5633 5635 5640 5649 5656 5671 5678 5695 5705 5721 5736 5746 5751 5761 5774 5789 5789 5801 5810 5818 5827 5833 5839 5845 5850 5855 5859 5862 5864 5868 5871 5873 5876 5878 5880 5883 5885 5887 5888 5887 5889 5891 5891 5892 5892 5892
5610 5612 5617 5620 5624 5626 5632 5644 5653 5664 5676 5697 5710 5721 5731 5748 5755 5765 5777 5766 5791 5803 5811 5819 5827 5833 5840 5845 5850 5855 5858 5861 5864 5867 5870 5872 5874 5877 5879 5882 5883 5886 5885 5885 5887 5888 5889 5890 5890
5601 5605 5607 5613 5611 5615 5623 5633 5639 5648 5673 5692 5703 5715 5726 5735 5751 5759 5768 5773 5779 5790 5804 5812 5818 5826 5833 5839 5844 5849 5853 5857 5860 5863 5866 5869 5871 5873 5875 5878 5880 5883 5884 5884 5884 5885 5886 5887 5887
5595 5598 5598 5601 5602 5607 5613 5618 5627 5641 5661 5681 5694 5706 5718 5732 5743 5757 5762 5769 5768 5780 5794 5805 5815 5821 5826 5833 5839 5844 5848 5853 5857 5860 5862 5864 5867 5869 5871 5874 5876 5879 5880 5881 5882 5882 5882 5883 5883
5586 5587 5589 5592 5595 5598 5604 5613 5618 5637 5648 5660 5679 5696 5710 5722 5741 5749 5753 5748 5754 5771 5780 5792 5804 5813 5819 5827 5833 5838 5843 5848 5852 5856 5858 5860 5863 5865 5867 5869 5871 5874 5876 5877 5878 5878 5879 5879 5879
5570 5574 5575 5583 5586 5591 5598 5600 5614 5632 5643 5650 5670 5688 5700 5713 5727 5728 5747 5746 5756 5770 5777 5785 5794 5803 5812 5820 5826 5831 5837 5842 5847 5851 5853 5855 5859 5861 5863 5865 5866 5869 5871 5873 5874 5874 5875 5875 5875
5556 5560 5567 5574 5575 5583 5589 5603 5612 5624 5637 5650 5662 5680 5694 5707 5718 5733 5739 5752 5757 5765 5775 5785 5790 5799 5804 5811 5820 5825 5832 5837 5841 5845 5848 5849 5853 5856 5858 5859 5861 5864 5865 5867 5869 5869 5869 5869 5869
5547 5552 5558 5565 5570 5575 5583 5597 5605 5618 5630 5640 5656 5671 5684 5698 5711 5722 5735 5744 5751 5759 5769 5779 5786 5791 5798 5806 5813 5822 5825 5831 5835 5838 5841 5844 5847 5850 5852 5854 5857 5859 5862 5862 5863 5863 5863 5863 5863
5541 5546 5553 5559 5567 5570 5578 5592 5600 5615 5623 5636 5652 5665 5678 5689 5701 5714 5726 5735 5744 5752 5764 5774 5781 5787 5794 5800 5810 5817 5820 5825 5830 5833 5835 5838 5841 5844 5847 5849 5852 5854 5856 5857 5857 5857 5857 5857 5858
5539 5546 5551 5557 5564 5568 5574 5589 5598 5609 5621 5632 5647 5660 5673 5685 5695 5708 5721 5731 5740 5751 5759 5772 5780 5787 5794 5799 5804 5809 5816 5822 5825 5827 5829 5831 5835 5838 5842 5843 5846 5847 5848 5850 5851 5850 5851 5851 5851
5543 5547 5551 5558 5561 5566 5576 5589 5597 5606 5623 5629 5642 5656 5669 5683 5693 5705 5715 5727 5735 5745 5756 5765 5776 5782 5788 5792 5797 5801 5810 5815 5817 5819 5822 5825 5829 5833 5835 5838 5840 5841 5842 5843 5844 5845 5845 5845 5844
5548 5549 5552 5559 5567 5574 5582 5593 5599 5606 5614 5620 5639 5651 5663 5680 5692 5703 5712 5726 5734 5740 5752 5761 5770 5776 5784 5786 5792 5797 5801 5804 5808 5813 5816 5820 5822 5826 5829 5831 5832 5834 5836 5836 5837 5838 5837 5837 5837
5553 5555 5559 5560 5571 5579 5586 5595 5597 5605 5611 5623 5637 5650 5658 5675 5690 5699 5708 5718 5726 5736 5746 5753 5761 5769 5774 5779 5786 5791 5796 5799 5802 5805 5808 5811 5814 5818 5823 5825 5827 5828 5828 5829 5829 5830 5830 5830 5831
5554 5559 5565 5568 5575 5583 5586 5594 5600 5607 5616 5628 5637 5648 5656 5672 5687 5696 5704 5713 5722 5729 5740 5738 5752 5763 5763 5773 5778 5781 5784 5788 5792 5795 5798 5802 5806 5811 5816 5818 5821 5821 5821 5822 5821 5822 5818 5820 5820
5561 5564 5569 5574 5579 5587 5589 5597 5603 5610 5617 5625 5632 5646 5655 5669 5683 5693 5701 5710 5719 5728 5734 5735 5745 5754 5761 5766 5770 5776 5777 5783 5789 5793 5794 5798 5802 5806 5808 5812 5812 5813 5814 5815 5813 5812 5812 5815 5814
5565 5570 5575 5580 5585 5586 5591 5599 5606 5609 5616 5626 5632 5644 5651 5666 5679 5691 5700 5708 5714 5725 5729 5733 5738 5744 5752 5762 5767 5770 5767 5777 5781 5784 5787 5793 5796 5797 5800 5803 5804 5804 5805 5807 5808 5809 5810 5811 5810
5569 5571 5574 5581 5583 5585 5591 5602 5609 5613 5620 5625 5633 5639 5653 5664 5675 5686 5696 5704 5711 5718 5723 5730 5730 5736 5745 5752 5762 5754 5756 5763 5772 5769 5778 5780 5785 5790 5790 5791 5795 5799 5801 5802 5802 5802 5802 5800 5800
5575 5577 5579 5581 5585 5591 5596 5604 5613 5618 5622 5627 5633 5646 5653 5660 5671 5682 5690 5700 5706 5711 5716 5719 5726 5733 5739 5746 5746 5747 5756 5761 5764 5768 5772 5776 5778 5780 5784 5789 5792 5795 5797 5798 5796 5796 5794 5794 5793
5578 5581 5586 5587 5590 5596 5602 5610 5617 5622 5622 5627 5633 5646 5650 5657 5669 5678 5685 5694 5703 5709 5714 5720 5723 5729 5735 5741 5744 5746 5750 5754 5760 5763 5763 5765 5771 5776 5779 5782 5785 5787 5789 5789 5789 5789 5788 5788 5786
5586 5588 5589 5593 5597 5603 5608 5614 5616 5621 5626 5630 5634 5642 5648 5659 5668 5675 5685 5693 5698 5705 5711 5718 5721 5725 5730 5734 5739 5743 5746 5749 5754 5757 5758 5763 5768 5770 5773 5775 5778 5780 5781 5781 5781 5781 5779 5776 5773
5590 5594 5598 5601 5604 5607 5610 5617 5619 5625 5631 5635 5638 5643 5649 5659 5665 5673 5681 5688 5695 5701 5705 5711 5717 5719 5722 5728 5732 5737 5740 5743 5747 5750 5753 5757 5760 5761 5764 5768 5770 5771 5772 5772 5771 5770 5768 5766 5763